"Pseudo-MPEC" for C1HM6M2

Created 2019 Dec 6 14:07:11 UT using Find_Orb

Click here for an explanation of pseudo-MPECs

 
 Astrometry: 
     C1HM6M2  C2019 12 02.40709 08 12 07.50 +31 12 20.8    ~C2Ab 21.0 GVNEOCPG96
     C1HM6M2  C2019 12 02.41235 08 12 07.43 +31 12 27.8    ~C2Ab 21.9 GVNEOCPG96
     C1HM6M2  C2019 12 02.42285 08 12 07.24 +31 12 42.2    ~C2Ab 21.8 GVNEOCPG96
     C1HM6M2  C2019 12 02.48405 08 12 06.24 +31 14 05.3    ~C2C7       VNEOCPV06
     C1HM6M2  C2019 12 02.48642 08 12 06.03 +31 14 10.2    ~C2C7 21.9 GVNEOCPV06
     C1HM6M2  C2019 12 02.48880 08 12 05.93 +31 14 13.7    ~C2C7 21.6 GVNEOCPV06
     C1HM6M2  C2019 12 02.49117 08 12 05.89 +31 14 17.1    ~C2C7 21.6 GVNEOCPV06
     C1HM6M2  C2019 12 03.35539 08 11 50.57 +31 34 23.3    ~C397       VNEOCPI52
     C1HM6M2  C2019 12 03.35914 08 11 50.41 +31 34 28.0    ~C397       VNEOCPI52
     C1HM6M2  C2019 12 03.36289 08 11 50.34 +31 34 33.5    ~C397       VNEOCPI52
     C1HM6M2  C2019 12 03:?OjXF_F:lGo5NFc#u=Xg:bAstrometrysLm+J+MdJ/]#H]=;^fPF52
     C1HM6M2  C2019 12 032295a1Hredacted;)K0QWa,'lYEq6TT9#70uPHbcQ$My-R/c)@K5F52
     C1HM6M2  C2019 12 03GqIGh9!B,$3vclEclickK/ahhVO@?9hereI`9a5.XU0TahhWe+#dF52
     C1HM6M2  C2019 12 03Vg%2Umh^g.QjHo)/_E=Tfor(KopmL5x*S.qXu%cdlexplanationF52
     C1HM6M2  C2019 12 06.32945 08 10 41.00 +32 45 07.6    ~C68M 21.1 GVNEOCPI52
     C1HM6M2  C2019 12 06.33314 08 10 40.87 +32 45 12.9    ~C68M 21.6 GVNEOCPI52
     C1HM6M2  C2019 12 06.33682 08 10 40.75 +32 45 17.7    ~C68M 21.5 GVNEOCPI52
     C1HM6M2  C2019 12 06.34050 08 10 40.61 +32 45 23.2    ~C68M 21.0 GVNEOCPI52

Station data:
(F52) Pan-STARRS 2, Haleakala  (N20.707384 W156.255910)  US/Hawaii. 1.8-m
   Ritchey-Chrétien + CCD.
(G96) Mt. Lemmon Survey  (N32.442754 W110.788720)  US/Arizona.  Observers T.
   A. Pruyne, B. M. Africano, E. J. Christensen, G. A. Farneth, D. C. Fuls,
   A. R. Gibbs, A. D. Grauer, H. Gröller, J. A. Johnson, R. A. Kowalski, S.
   M. Larson, G. J. Leonard, D. Rankin, R. L. Seaman, F. C. Shelly. 1.5-m
   reflector + 10K CCD.
(I52) Steward Observatory, Mt. Lemmon Station  (N32.442547 W110.788920)
   US/Arizona.  Observers T. A. Pruyne, B. M. Africano, E. J. Christensen, G.
   A. Farneth, D. C. Fuls, A. R. Gibbs, A. D. Grauer, H. Gröller, J. A.
   Johnson, R. A. Kowalski, S. M. Larson, G. J. Leonard, D. Rankin, R. L.
   Seaman, F. C. Shelly. 1.0-m reflector + CCD.
(V06) Catalina Sky Survey-Kuiper  (N32.416847 W110.732550)  US/Arizona.
   Observers T. A. Pruyne, B. M. Africano, E. J. Christensen, G. A. Farneth,
   D. C. Fuls, A. R. Gibbs, A. D. Grauer, H. Gröller, J. A. Johnson, R. A.
   Kowalski, S. M. Larson, G. J. Leonard, D. Rankin, R. L. Seaman, F. C.
   Shelly. 1.55-m reflector + CCD.

Orbital elements:  C1HM6M2
   Perihelion 2019 Feb 11.440954 +/- 14 TT = 10:34:58 (JD 2458525.940954)
Epoch 2019 Dec  6.0 TT = JDT 2458823.5                        AutoNEOCP
M  90.12141136 +/- 5.5              (J2000 ecliptic)
n   0.30286900 +/- 0.0059           Peri.  267.99579 +/- 4.5
a   2.19600250 +/- 0.0285           Node    90.46118 +/- 0.26
e   0.1220843 +/- 0.0106            Incl.   41.04968 +/- 0.57
P   3.25                   H 18.2   G  0.15   U  9.3  
q 1.92790499 +/- 0.0327    Q 2.46410001 +/- 0.0413
From 18 observations 2019 Dec. 2-6; mean residual 0".59
Residuals in arcseconds: 
191202 G96  .73-  .72+    191202 V06  .44-  .23+    191203 F52  .10+  .35+    
191202 G96  .33-  .39+    191203 I52  .62+  .08-    191203 F52  .03-  .28+    
191202 G96  .16-  .18+    191203 I52  .39-  .67-    191206 I52  .37+  .32+    
191202 V06  2.3+  1.7-    191203 I52  .26-  .47-    191206 I52  .10+  .23+    
191202 V06  .17+  .08-    191203 F52  .03+  .42+    191206 I52  .04-  .35-    
191202 V06  .52-  .12+    191203 F52  .17-  .31+    191206 I52  .43-  .22-    

Ephemerides (geocentric):
Date (UTC) HH   RA              Dec         delta   r     elong  mag " sig PA
---- -- -- --  -------------   -----------  ------ ------ -----  --- ---- ---
2019 12 06 14  08 10 33.632   +32 51 16.33  1.4229 2.2298 134.8 21.7 .254  81
2019 12 06 15  08 10 32.455   +32 52 16.88  1.4226 2.2298 134.9 21.7 .276  81
2019 12 06 16  08 10 31.272   +32 53 17.46  1.4223 2.2299 134.9 21.7 .298  81
2019 12 06 17  08 10 30.085   +32 54 18.06  1.4220 2.2299 135.0 21.7 .321  81
2019 12 06 18  08 10 28.892   +32 55 18.69  1.4217 2.2300 135.0 21.7 .344  81
2019 12 06 19  08 10 27.695   +32 56 19.34  1.4214 2.2301 135.0 21.7 .368  81
2019 12 06 20  08 10 26.493   +32 57 20.01  1.4211 2.2301 135.1 21.7 .392  81
2019 12 06 21  08 10 25.286   +32 58 20.71  1.4208 2.2302 135.1 21.7 .417  80
2019 12 06 22  08 10 24.075   +32 59 21.44  1.4205 2.2302 135.2 21.7 .441  80
2019 12 06 23  08 10 22.858   +33 00 22.18  1.4202 2.2303 135.2 21.7 .467  80
2019 12 07 00  08 10 21.637   +33 01 22.95  1.4199 2.2303 135.3 21.7 .493  80
2019 12 07 01  08 10 20.410   +33 02 23.75  1.4196 2.2304 135.3 21.7 .519  80
2019 12 07 02  08 10 19.179   +33 03 24.57  1.4193 2.2305 135.4 21.7 .545  80
2019 12 07 03  08 10 17.943   +33 04 25.41  1.4190 2.2305 135.4 21.7 .572  80
2019 12 07 04  08 10 16.702   +33 05 26.28  1.4187 2.2306 135.4 21.7 .600  80
2019 12 07 05  08 10 15.456   +33 06 27.17  1.4184 2.2306 135.5 21.7 .628  80
2019 12 07 06  08 10 14.205   +33 07 28.08  1.4182 2.2307 135.5 21.7 .656  80
2019 12 07 07  08 10 12.949   +33 08 29.02  1.4179 2.2307 135.6 21.7 .685  80
2019 12 07 08  08 10 11.689   +33 09 29.98  1.4176 2.2308 135.6 21.7 .714  80
2019 12 07 09  08 10 10.423   +33 10 30.96  1.4173 2.2309 135.7 21.7 .743  80
2019 12 07 10  08 10 09.153   +33 11 31.97  1.4170 2.2309 135.7 21.7 .773  80
2019 12 07 11  08 10 07.878   +33 12 33.00  1.4167 2.2310 135.8 21.7 .804  80
2019 12 07 12  08 10 06.598   +33 13 34.05  1.4164 2.2310 135.8 21.7 .835  80
2019 12 07 13  08 10 05.312   +33 14 35.13  1.4161 2.2311 135.8 21.7 .866  79
2019 12 07 14  08 10 04.023   +33 15 36.23  1.4158 2.2312 135.9 21.7 .897  79
2019 12 07 15  08 10 02.728   +33 16 37.36  1.4156 2.2312 135.9 21.7 .929  79
2019 12 07 16  08 10 01.428   +33 17 38.50  1.4153 2.2313 136.0 21.7 .962  79
2019 12 07 17  08 10 00.123   +33 18 39.67  1.4150 2.2313 136.0 21.7 0.99  79
2019 12 07 18  08 09 58.814   +33 19 40.86  1.4147 2.2314 136.1 21.7 1.03  79
2019 12 07 19  08 09 57.499   +33 20 42.08  1.4144 2.2314 136.1 21.7 1.06  79
2019 12 07 20  08 09 56.180   +33 21 43.32  1.4141 2.2315 136.2 21.7 1.10  79
2019 12 07 21  08 09 54.855   +33 22 44.58  1.4138 2.2316 136.2 21.7 1.13  79
2019 12 07 22  08 09 53.526   +33 23 45.86  1.4136 2.2316 136.2 21.7 1.17  79
2019 12 07 23  08 09 52.192   +33 24 47.17  1.4133 2.2317 136.3 21.7 1.20  79
2019 12 08 00  08 09 50.853   +33 25 48.50  1.4130 2.2317 136.3 21.7 1.24  79
2019 12 08 01  08 09 49.508   +33 26 49.85  1.4127 2.2318 136.4 21.7 1.27  79
2019 12 08 02  08 09 48.159   +33 27 51.22  1.4124 2.2318 136.4 21.7 1.31  79
2019 12 08 03  08 09 46.805   +33 28 52.62  1.4121 2.2319 136.5 21.7 1.35  79
2019 12 08 04  08 09 45.447   +33 29 54.03  1.4119 2.2320 136.5 21.7 1.38  79
2019 12 08 05  08 09 44.083   +33 30 55.47  1.4116 2.2320 136.6 21.7 1.42  79
2019 12 08 06  08 09 42.714   +33 31 56.94  1.4113 2.2321 136.6 21.7 1.46  79
2019 12 08 07  08 09 41.340   +33 32 58.42  1.4110 2.2321 136.6 21.6 1.50  79
2019 12 08 08  08 09 39.962   +33 33 59.93  1.4107 2.2322 136.7 21.6 1.54  79
2019 12 08 09  08 09 38.578   +33 35 01.46  1.4105 2.2322 136.7 21.6 1.58  79
2019 12 08 10  08 09 37.190   +33 36 03.01  1.4102 2.2323 136.8 21.6 1.62  79
2019 12 08 11  08 09 35.796   +33 37 04.58  1.4099 2.2324 136.8 21.6 1.66  79
2019 12 08 12  08 09 34.398   +33 38 06.17  1.4096 2.2324 136.9 21.6 1.70  79
2019 12 08 13  08 09 32.994   +33 39 07.79  1.4093 2.2325 136.9 21.6 1.74  79